Flag for Australia Weather past 2 weeks in Bunbury, Western Australia, Australia

Now
68 °F

Mild.


Feels Like: 68 °F
Forecast: 56 / 71 °F
Wind: 10 mph from East

Location: Bunbury

Current Time: Sep 16, 2014 at 1:34:38 PM

Latest Report: Sep 16, 2014 at 12:00 PM


Visibility: N/A

Pressure: 30.12 "Hg

Humidity: 46%

Dew point: 47 °F

Location of BunburyLocation

Historic Weather in Bunbury — Graph

°F

Bunbury temperature yesterday

Maximum temperature yesterday: 69 °F (at 2:00 PM)
Minimum temperature yesterday: 51 °F (at 6:00 AM)
Average temperature yesterday: 59 °F

Past Weeks' High & Low Weather Summary

 TemperatureHumidityPressure
High71 °F (Sep 5, 12:00 PM)97% (Sep 3, 8:00 AM)30.30 "Hg (Sep 3, 8:00 AM)
Low41 °F (Sep 14, 3:00 AM)40% (Sep 4, 3:00 PM)29.47 "Hg (Sep 7, 11:00 PM)
Average59 °F75%30.03 "Hg
* Reported Sep 1 12:00 Noon — Sep 16 12:00 Noon, Bunbury, Weather by CustomWeather, © 2014

Note: Actual official high and low records may vary slightly from our data, if they occured in-between our weather recording intervals... More about our weather records

Advertising

Bunbury weather history for previous 24 hours

 ConditionsComfort  
Time TempWeatherWind HumidityBarometerVisibility
12:00 PM
Sep 16
68 °FMild.10 mph46%30.12 "HgN/A
11:00 AM66 °FMild.12 mph51%30.16 "HgN/A
9:00 AM61 °FCool.10 mph67%30.20 "HgN/A
8:00 AM57 °FCool.3 mph70%30.21 "HgN/A
6:00 AM46 °FCool.5 mph86%30.19 "HgN/A
5:00 AM49 °FCool.8 mph84%30.18 "HgN/A
3:00 AM51 °FCool.10 mph77%30.18 "HgN/A
2:00 AM51 °FCool.9 mph75%30.19 "HgN/A
12:00 AM52 °FCool.7 mph73%30.22 "HgN/A
11:00 PM
Sep 15
53 °FCool.9 mph71%30.22 "HgN/A
9:00 PM55 °FCool.9 mph72%30.23 "HgN/A
8:00 PM56 °FCool.10 mph68%30.22 "HgN/A
6:00 PM61 °FCool.8 mph65%30.20 "HgN/A
5:00 PM64 °FMild.9 mph57%30.19 "HgN/A
3:00 PM67 °FMild.10 mph56%30.19 "HgN/A
2:00 PM69 °FMild.2 mph46%30.19 "HgN/A
Weather by CustomWeather, © 2014

See weather overviewHow to use our weather pages